Regional Weather Roundup
Issued by NWS

Home | Current Version | Previous Version | Text Only | Print | Product List | Glossary On
Versions: 1 2 3 4 5 6 7 8 9 10 11 12 13 14 15 16 17 18 19 20 21 22 23 24 25 26 27 28 29 30 31 32 33 34 35 36 37 38 39 40 41 42 43 44 45 46 47 48 49 50
000
ASUS44 KOUN 132200
RWROK

WEATHER ROUNDUP FOR OKLAHOMA
NATIONAL WEATHER SERVICE NORMAN OK
400 PM CST SAT FEB 13 2016

NOTE: "FAIR" INDICATES FEW OR NO CLOUDS BELOW 12,000 FEET WITH NO
      SIGNIFICANT WEATHER AND/OR OBSTRUCTIONS TO VISIBILITY.

OKZ001>007-009>012-014-015-017-132300-
NORTHWEST OKLAHOMA AND THE PANHANDLE

CITY           SKY/WX    TMP DP  RH WIND       PRES   REMARKS
GAGE           SUNNY     59  32  36 S18       30.03F
GUYMON         SUNNY     74  28  18 S21G31    29.88F
$$

OKZ016-021>023-033>039-044-045-132300-
SOUTHWEST OKLAHOMA

CITY           SKY/WX    TMP DP  RH WIND       PRES   REMARKS
LAWTON/REGL    SUNNY     63  37  38 SE16      30.12F
LAWTON/FT SILL SUNNY     63  38  40 S16G22    30.10F
FREDERICK      SUNNY     62  39  42 S14       30.09F
CLINTON        SUNNY     54  34  46 S24       30.10F
HOBART         SUNNY     58  36  43 S22       30.11F
ALTUS AFB      SUNNY     60  33  37 S16       30.11F
$$

OKZ018>020-024>031-132300-
CENTRAL OKLAHOMA

CITY           SKY/WX    TMP DP  RH WIND       PRES   REMARKS
OKLAHOMA CITY  MOSUNNY   58  32  37 S18       30.14F
OKC/WILEY POST SUNNY     57  31  37 S17       30.14F
OKC/TINKER AFB SUNNY     58  31  35 S14G20    30.13F
STILLWATER     SUNNY     53  26  35 SE13      30.16F
GUTHRIE        SUNNY     55  27  34 SE12      30.14F
$$

OKZ008-013-054>072-132300-
NORTHEAST OKLAHOMA

CITY           SKY/WX    TMP DP  RH WIND       PRES   REMARKS
TULSA          PTSUNNY   52  26  36 SE13      30.22F
TULSA/JONES    SUNNY     53  26  35 SE13      30.23F
PONCA CITY     CLOUDY    49  20  31 SE16G23   30.17F
BARTLESVILLE   SUNNY     47  14  26 SE12      30.25F
MUSKOGEE       SUNNY     52  25  35 SE17      30.26F
$$

OKZ032-040>043-046>053-073>077-132300-
SOUTH CENTRAL/SOUTHEAST OKLAHOMA

CITY           SKY/WX    TMP DP  RH WIND       PRES   REMARKS
MCALESTER      SUNNY     59  30  33 S12       30.23F
$$




USA.gov is the U.S. government's official web portal to all federal, state and local government web resources and services.